Location: State Camp
(41.2367°N, 77.7828°W)
Time: 18:02:21
(UTC-04:00)

ADEOS Rocket - Visible Passes

Search period start: 31 March 2015 00:00
Search period end: 10 April 2015 00:00
Orbit: 859 x 1307 km, 98.7° (Epoch: 31 March)

Date Brightness Start Highest point End Pass type
(mag) Time Alt. Az. Time Alt. Az. Time Alt. Az.
31 Mar 4.0 20:49:43 10° S 20:57:26 65° W 21:04:46 10° NNW visible
31 Mar 6.2 22:42:28 10° W 22:44:19 11° W 22:45:28 10° WNW visible
01 Apr 3.6 20:01:01 10° SSE 20:08:38 64° ENE 20:15:52 10° N visible
01 Apr 5.4 21:48:11 10° SSW 21:54:33 27° W 22:00:29 10° NW visible
02 Apr 4.2 20:57:42 10° S 21:05:18 56° W 21:12:29 10° NNW visible
03 Apr 3.5 20:08:47 10° SSE 20:16:27 73° ENE 20:23:40 10° N visible
03 Apr 5.6 21:56:36 10° SW 22:02:31 23° W 22:07:56 10° NW visible
04 Apr 4.4 21:05:46 10° S 21:13:11 49° W 21:20:09 10° NNW visible
05 Apr 3.5 20:16:35 10° SSE 20:24:16 82° ENE 20:31:27 10° NNW visible
05 Apr 5.7 22:05:08 10° SW 22:10:29 19° W 22:15:16 10° NW visible
06 Apr 4.6 21:13:51 10° SSW 21:21:05 43° W 21:27:47 10° NNW visible
07 Apr 3.6 20:24:26 10° SSE 20:32:06 88° WSW 20:39:12 10° NNW visible
07 Apr 5.9 22:13:51 10° SW 22:18:27 16° W 22:22:28 10° NW visible
08 Apr 4.9 21:22:02 10° SSW 21:28:58 37° W 21:35:23 10° NNW visible
09 Apr 3.7 20:32:19 10° S 20:39:55 78° WSW 20:46:56 10° NNW visible
09 Apr 6.0 22:22:51 10° WSW 22:26:26 13° W 22:29:24 10° WNW visible
